Weather History for Grand Rapids, MI

Change the Weather History Date:

Thursday, November 15, 2012

  Actual Average Record
Temperature  
Mean Temperature 36 °F 40 °F  
Max Temperature 46 °F 48 °F 68 °F (1990)
Min Temperature 25 °F 33 °F 10 °F (1933)
Degree Days  
Heating Degree Days 29 25  
Month to date heating degree days 360 328  
Since 1 July heating degree days 930 920  
Cooling Degree Days 0 0  
Month to date cooling degree days 0 0  
Year to date cooling degree days 1039 699  
Moisture  
Dew Point 26 °F    
Average Humidity 71    
Maximum Humidity 88    
Minimum Humidity 53    
Precipitation  
Precipitation 0.00 in 0.13 in 1.84 in (1989)
Month to date precipitation 0.33 1.81  
Year to date precipitation 30.84 34.07  
Snow  
Snow 0.00 in 0.20 in 4.10 in (1969)
Month to date snowfall 0.1 2.1  
Since 1 July snowfall 0.1 2.6  
Since 1 September snowfall 0.1 2.6  
Snow Depth 0.00 in    
Sea Level Pressure  
Sea Level Pressure 30.40 in    
Wind  
Wind Speed 2 mph (South)    
Max Wind Speed 9 mph    
Max Gust Speed 10 mph    
Visibility 6 miles    
Events      
T = Trace of Precipitation, MM = Missing Value Source: NWS Daily Summary

Daily Weather History Graph

Daily Weather History Graph

Search for Another Location

Airport:

Trip Planner

Search our weather history database for the weather conditions in past years. The results will help you decide how hot, cold, wet, or windy it might be!

Date:

Astronomy

Nov. 15, 2012 Rise Set
Actual Time 7:34 AM EST 5:18 PM EST
Civil Twilight 7:04 AM EST 5:48 PM EST
Nautical Twilight 6:29 AM EST 6:23 PM EST
Astronomical Twilight 5:56 AM EST 6:56 PM EST
Moon 9:31 AM EST (11/15) 7:07 PM EST (11/15)
Length of Visible Light 10h 44m
Length of Day
9h 43m
Waxing Crescent, 5% of the Moon is Illuminated
Nov 15
Waxing Crescent
Nov 20
First Quarter
Nov 28
Full
Dec 6
Last Quarter
Dec 13
New

Hourly Weather History & Observations

Time (EST) Temp. Windchill Dew Point Humidity Pressure Visibility Wind Dir Wind Speed Gust Speed Precip Events Conditions
12:53 AM 27.0 °F 23.0 °F 23.0 °F 85% 30.44 in 8.0 mi SSE 3.5 mph - N/A   Clear
1:53 AM 28.0 °F 24.2 °F 23.0 °F 81% 30.43 in 7.0 mi SSE 3.5 mph - N/A   Clear
2:53 AM 28.0 °F - 23.0 °F 81% 30.43 in 7.0 mi Calm Calm - N/A   Clear
3:53 AM 28.0 °F - 23.0 °F 81% 30.42 in 6.0 mi Calm Calm - N/A   Haze
4:53 AM 27.0 °F - 21.9 °F 81% 30.42 in 5.0 mi Calm Calm - N/A   Haze
5:53 AM 25.0 °F - 21.0 °F 85% 30.42 in 6.0 mi Calm Calm - N/A   Clear
6:53 AM 24.8 °F - 21.2 °F 86% 30.39 in 5.0 mi Calm Calm - N/A   Partly Cloudy
7:53 AM 25.0 °F 20.7 °F 21.9 °F 88% 30.43 in 3.0 mi ESE 3.5 mph - N/A   Scattered Clouds
8:53 AM 28.9 °F - 25.0 °F 85% 30.44 in 3.0 mi Calm Calm - N/A   Mostly Cloudy
9:53 AM 34.0 °F 28.0 °F 28.9 °F 82% 30.43 in 4.0 mi SSE 6.9 mph - N/A   Haze
10:53 AM 39.0 °F 35.7 °F 30.0 °F 70% 30.43 in 6.0 mi SSW 4.6 mph - N/A   Haze
11:53 AM 41.0 °F 37.1 °F 28.9 °F 62% 30.42 in 6.0 mi SW 5.8 mph - N/A   Haze
12:53 PM 43.0 °F 40.3 °F 30.0 °F 60% 30.40 in 6.0 mi South 4.6 mph - N/A   Haze
1:53 PM 43.0 °F 41.3 °F 28.9 °F 58% 30.38 in 7.0 mi Variable 3.5 mph - N/A   Overcast
2:53 PM 44.1 °F - 28.0 °F 53% 30.36 in 7.0 mi Calm Calm - N/A   Mostly Cloudy
3:53 PM 45.0 °F 42.6 °F 28.0 °F 52% 30.36 in 7.0 mi SW 4.6 mph - N/A   Mostly Cloudy
4:53 PM 42.1 °F 39.2 °F 28.0 °F 58% 30.37 in 6.0 mi WSW 4.6 mph - N/A   Haze
5:53 PM 41.0 °F - 27.0 °F 57% 30.37 in 8.0 mi Calm Calm - N/A   Partly Cloudy
6:53 PM 34.0 °F - 26.1 °F 73% 30.39 in 7.0 mi Calm Calm - N/A   Scattered Clouds
7:53 PM 33.1 °F 30.0 °F 26.1 °F 75% 30.39 in 6.0 mi South 3.5 mph - N/A   Haze
8:53 PM 33.1 °F - 26.1 °F 75% 30.39 in 6.0 mi Calm Calm - N/A   Haze
9:53 PM 30.9 °F - 25.0 °F 79% 30.40 in 5.0 mi Calm Calm - N/A   Haze
10:53 PM 28.0 °F 24.2 °F 24.1 °F 85% 30.39 in 5.0 mi SSE 3.5 mph - N/A   Clear
11:53 PM 28.0 °F 22.8 °F 24.1 °F 85% 30.39 in 4.0 mi South 4.6 mph - N/A   Clear